Погода в Вертячем

Россия / Волгоградская область     48°56′51″N   43°54′58″E
темп.,
°C
ветер,
м/с
пор.,
м/с
влажн.,
%
обл.,
%
осадки,
мм/ч
давл.,
гПа
погр.,
м
11 апреля, вс
вс1100:00+6ссз479475 0.0 1020249
03:00+5с4896100 0.0 1020246
06:00+5с579499 0.0 1020308
09:00+8св458892 0.0 1021392
12:00+15юв4661100 0.0 10211032
15:00+18юв465327 0.0 1020937
18:00+17в356174 0.0 102175
21:00+14св347389 0.0 102152
12 апреля, пн
пн1200:00+13всв477925 0.0 102298
03:00+11всв410675 0.0 1022138
06:00+11в512615 0.0 1023210
09:00+16в812465 0.0 1024438
12:00+21вюв8103812 0.0 10241061
15:00+22вюв9113237 0.0 10231780
18:00+19в61138100 0.0 1024265
21:00+14в5115175 0.0 1025194
13 апреля, вт
вт1300:00+12в485942 0.0 1025106
03:00+10в4106329 0.0 1026158
06:00+10в5135621 0.0 1026212
09:00+16в81438100 0.0 1026487
12:00+21вюв812275 0.0 10251377
15:00+22вюв810250 0.0 10242028
18:00+18вюв5103411 0.0 1024223
21:00+14в474654 0.0 102485
14 апреля, ср
ср1400:00+12в4650100 0.0 102381
03:00+10в4952100 0.0 1023127
06:00+9в495870 0.0 1022152
09:00+15в61040100 0.0 1022393
12:00+19в793247 0.0 10201130
15:00+21вюв782736 0.0 10192044
18:00+18вюв353925 0.0 101991
21:00+14в49535 0.0 1019125
15 апреля, чт
чт1500:00+12в4115384 0.0 1018177
03:00+10в35584 0.0 101771
06:00+10вюв22610 0.0 101730
09:00+16вюв46390 0.0 1016510
12:00+20ююв45240 0.0 10161361
15:00+22юв34235 0.0 10141768
18:00+20ююв11350 0.0 101411
21:00+16всв33430 0.0 101424